Tracking 29091 objects as of 17-Jul-2024
HD Live streaming from Space Station
objects crossing your sky now

OBJECT D

Track OBJECT D now!
10-day predictions


NORAD ID: 43665
Int'l Code: 2018-083D
Perigee: 431.7 km
Apogee: 444.2 km
Inclination: 97.3 °
Period: 93.2 minutes
Semi major axis: 6808 km
RCS: Unknown
Launch date: October 29, 2018
Source: People's Republic of China (PRC)
Launch site: Jiuquan Satellite Launch Center, China (JSC)
Your satellite tracking list
Your tracking list is empty




NASA's NSSDC Master Catalog

Two Line Element Set (TLE):
1 43665U 18083D   24199.56473346  .00046576  00000-0  97709-3 0  9990
2 43665  97.3401 227.7361 0009158 145.8952 214.2887 15.45202019317669
Source of the keplerian elements: AFSPC